Weather History for Jordan, MT

Change the Weather History Date:

Monday, April 22, 2013

  Actual Average Record
Temperature  
Mean Temperature 30 °F 46 °F  
Max Temperature 39 °F 60 °F 87 °F (1906)
Min Temperature 20 °F 31 °F -3 °F (1967)
Degree Days  
Heating Degree Days 35 19  
Month to date heating degree days 656 487  
Since 1 July heating degree days 7182 7589  
Cooling Degree Days 0 0  
Month to date cooling degree days 0 0  
Year to date cooling degree days 0 0  
Moisture  
Dew Point 17 °F    
Average Humidity 63    
Maximum Humidity 88    
Minimum Humidity 37    
Precipitation  
Precipitation 0.00 in 0.04 in 0.18 in (1960)
Month to date precipitation 1.70 0.66  
Year to date precipitation 2.84 1.66  
Snow  
Snow 0.00 in - - ()
Month to date snowfall 0.0  
Since 1 July snowfall 0.0  
Snow Depth 0.00 in    
Sea Level Pressure  
Sea Level Pressure 30.48 in    
Wind  
Wind Speed 7 mph (NNW)    
Max Wind Speed 16 mph    
Max Gust Speed 22 mph    
T = Trace of Precipitation, MM = Missing Value Source: NWS Daily Summary

Daily Weather History Graph

Daily Weather History Graph

Search for Another Location

Airport:

Trip Planner

Search our weather history database for the weather conditions in past years. The results will help you decide how hot, cold, wet, or windy it might be!

Date:

Astronomy

Apr. 22, 2013 Rise Set
Actual Time 6:06 AM MDT 8:07 PM MDT
Civil Twilight 5:33 AM MDT 8:40 PM MDT
Nautical Twilight 4:52 AM MDT 9:21 PM MDT
Astronomical Twilight 4:07 AM MDT 10:06 PM MDT
Moon 4:47 PM MDT (4/22) 4:15 AM MDT (4/22)
Length of Visible Light 15h 07m
Length of Day
14h 01m
Waxing Gibbous, 88% of the Moon is Illuminated
Apr 22
Waxing Gibbous
Apr 25
Full
May 2
Last Quarter
May 9
New
May 17
First Quarter

Hourly Weather History & Observations

Time (MDT) Temp. Windchill Dew Point Humidity Pressure Visibility Wind Dir Wind Speed Gust Speed Precip Events Conditions
12:48 AM 28.0 °F 18.6 °F 19.9 °F 72% 30.39 in - NNE 10.4 mph - N/A   Unknown
1:48 AM 27.0 °F 19.5 °F 19.9 °F 75% 30.41 in - ENE 6.9 mph - N/A   Unknown
2:48 AM 26.1 °F 20.5 °F 19.0 °F 75% 30.43 in - ENE 4.6 mph - N/A   Unknown
3:48 AM 23.0 °F 15.8 °F 19.0 °F 85% 30.44 in - NNE 5.8 mph - N/A   Unknown
4:48 AM 21.0 °F 16.2 °F 17.1 °F 85% 30.47 in - North 3.5 mph - N/A   Unknown
5:48 AM 21.0 °F 14.6 °F 17.1 °F 85% 30.48 in - NNW 4.6 mph - N/A   Unknown
6:48 AM 23.0 °F 13.9 °F 18.0 °F 81% 30.49 in - NNW 8.1 mph - N/A   Unknown
7:48 AM 26.1 °F 16.8 °F 17.1 °F 69% 30.52 in - North 9.2 mph - N/A   Unknown
8:48 AM 28.0 °F 19.3 °F 12.9 °F 53% 30.53 in - North 9.2 mph - N/A   Unknown
9:48 AM 28.9 °F 18.2 °F 12.0 °F 49% 30.54 in - NNW 13.8 mph - N/A   Unknown
11:48 AM 30.9 °F 23.5 °F 12.9 °F 47% 30.55 in - NNW 8.1 mph - N/A   Unknown
12:48 PM 35.1 °F 27.9 °F 15.1 °F 44% 30.53 in - NW 9.2 mph - N/A   Unknown
1:48 PM 35.1 °F 27.4 °F 14.0 °F 42% 30.52 in - NW 10.4 mph 18.4 mph N/A   Unknown
2:48 PM 37.0 °F 31.0 °F 16.0 °F 42% 30.51 in - NW 8.1 mph - N/A   Unknown
3:48 PM 37.0 °F 30.4 °F 15.1 °F 41% 30.50 in - NW 9.2 mph - N/A   Unknown
4:48 PM 37.9 °F 32.1 °F 14.0 °F 38% 30.48 in - NW 8.1 mph - N/A   Unknown
5:48 PM 36.0 °F 28.0 °F 14.0 °F 41% 30.48 in - NW 11.5 mph - N/A   Unknown
6:48 PM 36.0 °F 29.0 °F 15.1 °F 43% 30.47 in - NW 9.2 mph - N/A   Unknown
7:48 PM 33.1 °F 27.7 °F 18.0 °F 54% 30.46 in - NNW 5.8 mph - N/A   Unknown
8:48 PM 28.0 °F - 21.0 °F 75% 30.47 in - Calm Calm - N/A   Unknown
9:48 PM 25.0 °F - 19.0 °F 78% 30.48 in - Calm Calm - N/A   Unknown
10:48 PM 25.0 °F 20.7 °F 19.0 °F 78% 30.46 in - WNW 3.5 mph - N/A   Unknown
11:48 PM 25.0 °F - 19.0 °F 78% 30.45 in - Calm Calm - N/A   Unknown